Location: Bern�tre
(50.1974°N, 2.0915°E)
Time: 02:34:36
(UTC+00:00)

NOSS 3-2 (C) - Pass Details

Date: 18 September 2020
Orbit: 795 x 1418 km, 63.4° (Epoch: 02 October)

Event Time Altitude Azimuth Distance (km) Brightness Sun altitude
Rises 18:42:08 0° 312° (NW) 3,811 7.8 -7.9°
Reaches altitude 10° 18:44:44 10° 319° (NW) 2,944 6.9 -8.3°
Maximum altitude 18:51:36 48° 33° (NNE) 1,549 4.4 -9.3°
Enters shadow 18:58:45 13° 104° (ESE) 3,143 5.4 -10.5°
